Bingham Lake, MN

2:16 PM CST on January 24, 2017 (GMT -0600)
Windom Municipal

Weather History for KMWM - February, 2013

Change the Weather History Date:

Thursday, February 7, 2013

  Actual Average Record
Temperature  
Mean Temperature 27 °F -  
Max Temperature 33 °F 24 °F 55 °F (1987)
Min Temperature 21 °F 4 °F -16 °F (1971)
Degree Days  
Heating Degree Days 38    
Moisture  
Dew Point 22 °F    
Average Humidity 95    
Maximum Humidity 100    
Minimum Humidity 86    
Precipitation  
Precipitation 0.00 in - - ()
Sea Level Pressure  
Sea Level Pressure 30.08 in    
Wind  
Wind Speed 13 mph (NNW)    
Max Wind Speed 18 mph    
Max Gust Speed 22 mph    
Visibility 4 miles    
Events Fog    
Averages and records for this station are not official NWS values.
T = Trace of Precipitation, MM = Missing Value Source: NWS Daily Summary

Daily Weather History Graph

Daily Weather History Graph

Search for Another Location

Airport or City:

Trip Planner

Search our weather history database for the weather conditions in past years. The results will help you decide how hot, cold, wet, or windy it might be!

Date:

Astronomy

Feb. 07, 2013 Rise Set
Actual Time 7:30 AM CST 5:39 PM CST
Civil Twilight 6:59 AM CST 6:09 PM CST
Nautical Twilight 6:25 AM CST 6:44 PM CST
Astronomical Twilight 5:52 AM CST 7:17 PM CST
Moon 5:13 AM CST (2/7) 3:02 PM CST (2/7)
Length of Visible Light 11h 09m
Length of Day
10h 09m
Waning Crescent, 9% of the Moon is Illuminated
Feb 7
Waning Crescent
Feb 10
New
Feb 17
First Quarter
Feb 25
Full
Mar 4
Last Quarter

Hourly Weather History & Observations

Time (CST) Temp. Windchill Dew Point Humidity Pressure Visibility Wind Dir Wind Speed Gust Speed Precip Events Conditions
12:12 AM 32.0 °F 27.5 °F 30.2 °F 93% 29.92 in 7.0 mi WNW 4.6 mph - N/A   Mostly Cloudy
12:33 AM 33.8 °F 27.0 °F 30.2 °F 87% 29.92 in 10.0 mi NW 8.1 mph - N/A   Scattered Clouds
12:52 AM 30.2 °F 20.8 °F 30.2 °F 100% 29.93 in 2.5 mi NW 11.5 mph 17.3 mph N/A   Scattered Clouds
1:13 AM 30.2 °F 18.5 °F 28.4 °F 93% 29.93 in 0.5 mi NNW 17.3 mph - N/A Fog Light Freezing Fog
1:32 AM - - - N/A% 29.93 in 0.8 mi NNW 16.1 mph 21.9 mph N/A   Overcast
1:52 AM 26.6 °F 14.7 °F 26.6 °F 100% 29.94 in 0.8 mi NNW 15.0 mph 20.7 mph N/A   Overcast
2:13 AM 24.8 °F 12.4 °F 24.8 °F 100% 29.94 in 0.8 mi NNW 15.0 mph 20.7 mph N/A   Overcast
2:32 AM 23.0 °F 9.2 °F 23.0 °F 100% 29.96 in 1.2 mi NNW 17.3 mph - N/A   Overcast
2:53 AM 21.2 °F 7.3 °F 21.2 °F 100% 29.97 in 2.5 mi NNW 16.1 mph - N/A   Overcast
3:12 AM 21.2 °F 8.9 °F 21.2 °F 100% 29.97 in 2.5 mi NNW 12.7 mph - N/A   Overcast
3:32 AM 21.2 °F 8.9 °F 21.2 °F 100% 29.98 in 2.5 mi NNW 12.7 mph - N/A   Overcast
3:53 AM 21.2 °F 8.3 °F 19.4 °F 93% 29.98 in 2.5 mi NNW 13.8 mph - N/A   Overcast
4:12 AM 21.2 °F 8.3 °F 19.4 °F 93% 29.98 in 2.5 mi North 13.8 mph - N/A   Overcast
4:32 AM 21.2 °F 8.9 °F 21.2 °F 100% 29.98 in 2.5 mi NNW 12.7 mph - N/A   Overcast
4:53 AM 21.2 °F 8.3 °F 21.2 °F 100% 29.98 in 2.5 mi NNW 13.8 mph - N/A   Overcast
5:12 AM 21.2 °F 7.8 °F 21.2 °F 100% 29.99 in 2.5 mi NNW 15.0 mph - N/A   Overcast
5:32 AM 21.2 °F 6.4 °F 21.2 °F 100% 29.99 in 2.0 mi NNW 18.4 mph - N/A   Overcast
5:53 AM 21.2 °F 7.3 °F 21.2 °F 100% 29.99 in 2.0 mi NNW 16.1 mph - N/A   Overcast
6:12 AM 21.2 °F 7.8 °F 21.2 °F 100% 29.98 in 1.8 mi NNW 15.0 mph 18.4 mph N/A   Overcast
6:32 AM 21.2 °F 8.3 °F 21.2 °F 100% 29.99 in 1.8 mi NNW 13.8 mph - N/A   Overcast
6:53 AM 21.2 °F 7.3 °F 21.2 °F 100% 30.00 in 1.8 mi NNW 16.1 mph - N/A   Overcast
7:12 AM 21.2 °F 7.8 °F 21.2 °F 100% 30.00 in 1.5 mi NNW 15.0 mph 18.4 mph N/A   Overcast
7:32 AM 21.2 °F 8.3 °F 21.2 °F 100% 30.02 in 1.5 mi NNW 13.8 mph 19.6 mph N/A   Overcast
7:52 AM 21.2 °F 7.8 °F 21.2 °F 100% 30.03 in 1.8 mi NNW 15.0 mph - N/A   Overcast
8:12 AM 21.2 °F 9.5 °F 21.2 °F 100% 30.04 in 1.8 mi NNW 11.5 mph - N/A   Overcast
8:33 AM 21.2 °F 8.3 °F 21.2 °F 100% 30.04 in 1.0 mi NNW 13.8 mph - N/A   Overcast
8:52 AM 21.2 °F 7.8 °F 21.2 °F 100% 30.05 in 1.0 mi North 15.0 mph 18.4 mph N/A   Overcast
9:13 AM 21.2 °F 8.3 °F 21.2 °F 100% 30.07 in 1.0 mi NNW 13.8 mph - N/A   Overcast
9:32 AM - - - N/A% 30.07 in 1.0 mi NNW 15.0 mph - N/A   Overcast
9:52 AM - - - N/A% 30.07 in 1.2 mi NNW 13.8 mph - N/A   Overcast
10:13 AM - - - N/A% 30.07 in 1.5 mi NNW 15.0 mph - N/A   Overcast
10:32 AM - - - N/A% 30.08 in 1.2 mi NNW 15.0 mph - N/A   Overcast
10:52 AM - - - N/A% 30.09 in 1.2 mi NNW 13.8 mph - N/A   Overcast
11:13 AM - - - N/A% 30.10 in 1.5 mi NNW 16.1 mph - N/A   Overcast
11:32 AM - - - N/A% 30.10 in 1.5 mi NNW 15.0 mph - N/A   Overcast
11:53 AM - - - N/A% 30.09 in 1.5 mi NNW 15.0 mph - N/A   Overcast
12:12 PM - - - N/A% 30.09 in 1.8 mi NNW 10.4 mph - N/A   Overcast
12:32 PM - - - N/A% 30.09 in 1.5 mi NNW 12.7 mph - N/A   Overcast
12:53 PM - - - N/A% 30.09 in 1.5 mi NNW 15.0 mph - N/A   Overcast
1:12 PM - - - N/A% 30.08 in 1.5 mi NNW 13.8 mph - N/A   Overcast
1:32 PM 24.8 °F 12.9 °F 23.0 °F 93% 30.08 in 1.5 mi NNW 13.8 mph - N/A   Overcast
1:53 PM - - - N/A% 30.09 in 1.8 mi NNW 13.8 mph - N/A   Overcast
2:12 PM 24.8 °F 14.0 °F 23.0 °F 93% 30.09 in 2.0 mi NNW 11.5 mph 17.3 mph N/A   Overcast
2:32 PM - - - N/A% 30.09 in 2.5 mi NNW 15.0 mph - N/A   Overcast
2:53 PM - - - N/A% 30.09 in 3.0 mi NNW 11.5 mph - N/A   Overcast
3:12 PM - - - N/A% 30.09 in 4.0 mi NNW 13.8 mph - N/A   Haze
3:32 PM 24.8 °F 12.4 °F - N/A% 30.10 in 5.0 mi North 15.0 mph 18.4 mph N/A   Haze
3:53 PM - - - N/A% 30.11 in 4.0 mi NNW 13.8 mph - N/A   Haze
4:12 PM - - - N/A% 30.12 in 5.0 mi NNW 15.0 mph - N/A   Haze
4:32 PM - - - N/A% 30.13 in 5.0 mi NNW 11.5 mph - N/A   Haze
4:53 PM - - - N/A% 30.13 in 5.0 mi NNW 12.7 mph - N/A   Haze
5:32 PM 24.8 °F 14.6 °F 24.8 °F 100% 30.16 in 10.0 mi NNW 10.4 mph - N/A   Overcast
5:53 PM 24.8 °F 13.4 °F 24.8 °F 100% 30.17 in 10.0 mi NNW 12.7 mph 16.1 mph N/A   Overcast
6:12 PM 24.8 °F 12.4 °F 24.8 °F 100% 30.17 in 10.0 mi NNW 15.0 mph - N/A   Overcast
6:32 PM 24.8 °F 13.4 °F 23.0 °F 93% 30.17 in 10.0 mi North 12.7 mph 18.4 mph N/A   Overcast
6:53 PM 24.8 °F 12.9 °F 23.0 °F 93% 30.18 in 10.0 mi North 13.8 mph - N/A   Overcast
7:12 PM 24.8 °F 11.9 °F 21.2 °F 86% 30.19 in 10.0 mi North 16.1 mph - N/A   Overcast
7:32 PM 23.0 °F 10.1 °F 21.2 °F 93% 30.19 in 10.0 mi North 15.0 mph - N/A   Overcast
7:53 PM 23.0 °F 11.1 °F 21.2 °F 93% 30.20 in 10.0 mi North 12.7 mph - N/A   Overcast
8:12 PM 23.0 °F 11.1 °F 21.2 °F 93% 30.20 in 10.0 mi North 12.7 mph - N/A   Overcast
8:32 PM 23.0 °F 10.1 °F 21.2 °F 93% 30.21 in 10.0 mi North 15.0 mph - N/A   Overcast
8:53 PM 23.0 °F 11.1 °F 21.2 °F 93% 30.22 in 10.0 mi North 12.7 mph - N/A   Overcast
9:13 PM 23.0 °F 11.1 °F 21.2 °F 93% 30.22 in 10.0 mi North 12.7 mph - N/A   Overcast
9:32 PM 23.0 °F 13.1 °F 21.2 °F 93% 30.23 in 10.0 mi North 9.2 mph - N/A   Overcast
9:53 PM 23.0 °F 11.7 °F 19.4 °F 86% 30.22 in 10.0 mi North 11.5 mph 16.1 mph N/A   Overcast
10:13 PM 23.0 °F 12.4 °F 19.4 °F 86% 30.22 in 10.0 mi North 10.4 mph 17.3 mph N/A   Overcast
10:32 PM 23.0 °F 14.7 °F 19.4 °F 86% 30.21 in 10.0 mi North 6.9 mph - N/A   Overcast
10:53 PM 23.0 °F 17.0 °F 19.4 °F 86% 30.22 in 10.0 mi NNW 4.6 mph - N/A   Overcast
11:13 PM 23.0 °F 14.7 °F 19.4 °F 86% 30.23 in 10.0 mi NNW 6.9 mph - N/A   Overcast
11:32 PM 23.0 °F 13.9 °F 19.4 °F 86% 30.23 in 10.0 mi NNW 8.1 mph - N/A   Overcast
11:53 PM 23.0 °F 13.9 °F 19.4 °F 86% 30.24 in 10.0 mi NNW 8.1 mph - N/A   Overcast